W2CS Weather Reports


Display with metric or nautical units.
time (UTC)temp
F
wind
direction
speed
MPH
gust
MPH
rain 1hr
in
rain 24hr
in
rain mn
in
humidity
%
barometer
mb
20260506211038 56 0 0.0 2.0 0.00 0.00 0.00 91 1009.3
20260506210538 56 0 0.0 2.0 0.00 0.00 0.00 91 1009.3
20260506210048 57 104 0.0 2.0 0.00 0.00 0.00 91 1009.3
20260506205539 57 0 0.0 2.0 0.00 0.00 0.00 91 1009.3
20260506205040 57 267 0.0 2.0 0.00 0.00 0.00 90 1009.4
20260506204558 57 0 0.0 2.0 0.00 0.00 0.00 90 1009.5
20260506204043 57 0 0.0 2.0 0.00 0.00 0.00 90 1009.5
20260506203540 57 0 0.0 2.0 0.00 0.00 0.00 90 1009.5
20260506203053 57 0 0.0 3.0 0.00 0.00 0.00 90 1009.4
20260506202538 57 0 0.0 3.0 0.00 0.00 0.00 89 1009.4
20260506202040 57 0 0.0 3.0 0.00 0.00 0.00 89 1009.5
20260506201547 57 0 0.0 3.0 0.00 0.00 0.00 90 1009.5
20260506201040 58 0 0.0 3.0 0.00 0.00 0.00 90 1009.6
20260506200539 57 203 0.0 3.0 0.00 0.00 0.00 89 1009.6
20260506200106 57 269 0.0 3.0 0.00 0.00 0.00 88 1009.7
20260506195539 57 0 0.0 3.0 0.00 0.00 0.00 88 1009.8
20260506195039 58 196 0.0 6.0 0.00 0.00 0.00 88 1009.8
20260506194558 58 104 1.0 6.0 0.00 0.00 0.00 87 1010.1
20260506194038 58 282 0.0 2.0 0.00 0.00 0.00 86 1010.1
20260506193541 58 279 0.0 3.0 0.00 0.00 0.00 85 1010.1
20260506193050 59 279 0.0 3.0 0.00 0.00 0.00 85 1010.1
20260506192538 59 278 1.0 3.0 0.00 0.00 0.00 85 1010.2
20260506192041 59 357 0.0 3.0 0.00 0.00 0.00 85 1010.3
20260506191553 59 0 1.0 3.0 0.00 0.00 0.00 85 1010.3
20260506191037 60 341 0.0 3.0 0.00 0.00 0.00 85 1010.3
20260506190538 60 0 1.0 3.0 0.00 0.00 0.00 85 1010.3
20260506190048 60 242 0.0 3.0 0.00 0.00 0.00 85 1010.3
20260506185538 60 297 1.0 3.0 0.00 0.00 0.00 85 1010.3
20260506185041 60 19 0.0 3.0 0.00 0.00 0.00 84 1010.3
20260506184605 60 33 1.0 5.0 0.00 0.00 0.00 84 1010.3
20260506184038 61 324 1.0 5.0 0.00 0.00 0.00 83 1010.3
20260506183539 61 29 1.0 3.0 0.00 0.00 0.00 82 1010.4
20260506183103 61 14 1.0 3.0 0.00 0.00 0.00 83 1010.4
20260506182539 62 353 1.0 3.0 0.00 0.00 0.00 82 1010.7
20260506182038 62 50 0.0 3.0 0.00 0.00 0.00 83 1010.7
20260506181559 62 131 1.0 3.0 0.00 0.00 0.00 83 1010.6
20260506181040 62 18 1.0 5.0 0.00 0.00 0.00 83 1010.8
20260506180543 62 0 1.0 5.0 0.00 0.00 0.00 83 1010.8
20260506180055 62 240 0.0 5.0 0.00 0.00 0.00 82 1011.0
20260506175542 62 330 1.0 4.0 0.00 0.00 0.00 82 1011.0
20260506175040 63 126 0.0 4.0 0.00 0.00 0.00 81 1011.1
20260506174554 63 318 1.0 4.0 0.00 0.00 0.00 82 1011.2
20260506174039 63 0 1.0 2.0 0.00 0.00 0.00 81 1011.5
20260506173539 64 0 0.0 3.0 0.00 0.00 0.00 81 1011.5
20260506173055 64 280 1.0 3.0 0.00 0.00 0.00 80 1011.5
20260506172539 64 161 1.0 3.0 0.00 0.00 0.00 80 1011.4
20260506172039 64 181 1.0 4.0 0.00 0.00 0.00 81 1011.4
20260506171550 64 327 1.0 4.0 0.00 0.00 0.00 81 1011.5
20260506171039 64 37 1.0 3.0 0.00 0.00 0.00 80 1011.5
20260506170538 64 56 1.0 3.0 0.00 0.00 0.00 80 1011.5
20260506170053 64 307 1.0 5.0 0.00 0.00 0.00 80 1011.6
20260506165540 64 353 1.0 5.0 0.00 0.00 0.00 82 1011.7
20260506165040 64 0 1.0 4.0 0.00 0.00 0.00 82 1011.7
20260506164551 63 319 1.0 4.0 0.00 0.00 0.00 84 1011.9
20260506164038 62 160 1.0 4.0 0.00 0.00 0.00 83 1012.0
20260506163535 62 353 1.0 4.0 0.00 0.00 0.00 82 1011.9
20260506163055 62 21 1.0 4.0 0.00 0.00 0.00 83 1012.1
20260506162539 62 289 1.0 6.0 0.00 0.00 0.00 83 1012.2
20260506162040 62 0 0.0 6.0 0.00 0.00 0.00 83 1012.3
20260506161603 62 0 1.0 6.0 0.00 0.00 0.00 81 1012.2
20260506161039 63 80 1.0 4.0 0.00 0.00 0.00 80 1012.3
20260506160540 64 352 0.0 3.0 0.00 0.00 0.00 79 1012.4
20260506160056 64 149 1.0 4.0 0.00 0.00 0.00 79 1012.5
20260506155539 65 178 1.0 4.0 0.00 0.00 0.00 77 1012.7
20260506155037 66 0 0.0 3.0 0.00 0.00 0.00 77 1012.8
20260506154556 67 185 1.0 4.0 0.00 0.00 0.00 79 1012.6
20260506154044 66 320 1.0 4.0 0.00 0.00 0.00 80 1012.8
20260506153539 67 0 1.0 5.0 0.00 0.00 0.00 78 1012.8
20260506153045 66 271 1.0 5.0 0.00 0.00 0.00 80 1012.7
20260506152539 66 91 1.0 4.0 0.00 0.00 0.00 78 1012.9
20260506152043 66 304 1.0 3.0 0.00 0.00 0.00 79 1012.9
20260506151602 66 0 0.0 5.0 0.00 0.00 0.00 77 1013.1
20260506151038 66 236 1.0 5.0 0.00 0.00 0.00 80 1013.0
20260506150540 66 264 0.0 4.0 0.00 0.00 0.00 79 1013.1
20260506150049 66 165 1.0 4.0 0.00 0.00 0.00 81 1013.0
20260506145539 66 0 1.0 3.0 0.00 0.00 0.00 80 1012.9
20260506145038 65 0 0.0 3.0 0.00 0.00 0.00 78 1012.7
20260506144551 65 0 0.0 3.0 0.00 0.00 0.00 81 1013.0
20260506144041 65 0 0.0 2.0 0.00 0.00 0.00 82 1012.9
20260506143539 64 164 0.0 3.0 0.00 0.00 0.00 82 1013.0
20260506143056 64 164 0.0 3.0 0.00 0.00 0.00 81 1012.7
20260506142538 64 170 0.0 3.0 0.00 0.00 0.00 82 1012.8
20260506142038 64 89 0.0 5.0 0.00 0.00 0.00 83 1012.9
20260506141554 64 18 1.0 5.0 0.00 0.00 0.00 81 1012.7
20260506141039 64 226 0.0 3.0 0.00 0.00 0.00 83 1012.5
20260506140542 64 0 0.0 2.0 0.00 0.00 0.00 80 1012.6
20260506140104 64 326 1.0 3.0 0.00 0.00 0.00 80 1012.8
20260506135539 65 0 1.0 3.0 0.00 0.00 0.00 81 1012.8
20260506135039 65 148 1.0 3.0 0.00 0.00 0.00 80 1012.8
20260506134550 65 331 1.0 4.0 0.00 0.00 0.00 82 1012.9
20260506134039 65 255 1.0 4.0 0.00 0.00 0.00 81 1012.9
20260506133539 65 25 1.0 4.0 0.00 0.00 0.00 82 1013.0
20260506133051 64 50 1.0 3.0 0.00 0.00 0.00 82 1012.9
20260506132539 64 332 1.0 3.0 0.00 0.00 0.00 83 1012.8
20260506132043 64 6 1.0 5.0 0.00 0.00 0.00 82 1012.8
20260506131553 64 0 1.0 5.0 0.00 0.00 0.00 83 1012.7
20260506131040 63 104 1.0 4.0 0.00 0.00 0.00 83 1012.6
20260506130540 63 295 1.0 4.0 0.00 0.00 0.00 83 1012.6
20260506125539 63 106 0.0 3.0 0.00 0.00 0.00 84 1012.8
20260506125040 62 302 1.0 6.0 0.00 0.00 0.00 84 1012.7
20260506124550 62 131 0.0 6.0 0.00 0.00 0.00 85 1012.6
20260506124039 61 67 0.0 5.0 0.00 0.00 0.00 85 1012.7
20260506123539 61 85 0.0 3.0 0.00 0.00 0.00 86 1012.8
20260506123048 61 267 0.0 2.0 0.00 0.00 0.00 86 1012.9
20260506122539 60 173 0.0 2.0 0.00 0.00 0.00 86 1012.8
20260506122038 60 0 0.0 4.0 0.00 0.00 0.00 86 1012.8
20260506121547 60 0 0.0 4.0 0.00 0.00 0.00 87 1012.7
20260506121039 60 347 1.0 4.0 0.00 0.00 0.00 87 1012.7
20260506120539 59 0 1.0 4.0 0.00 0.00 0.00 87 1012.8
20260506120053 59 321 0.0 3.0 0.00 0.00 0.00 88 1012.8
20260506115539 58 0 1.0 3.0 0.00 0.00 0.00 89 1012.9
20260506115039 58 0 0.0 3.0 0.00 0.00 0.00 89 1013.0
20260506114548 57 0 1.0 3.0 0.00 0.00 0.00 90 1012.9
20260506114039 56 197 0.0 3.0 0.00 0.00 0.00 91 1013.0
20260506113539 56 92 1.0 3.0 0.00 0.00 0.00 91 1013.0
20260506113049 55 0 0.0 3.0 0.00 0.00 0.00 91 1013.0
20260506112540 55 0 0.0 3.0 0.00 0.00 0.00 90 1013.1
20260506112039 55 358 1.0 3.0 0.00 0.00 0.00 91 1013.0
20260506111549 55 351 0.0 3.0 0.00 0.00 0.00 91 1013.0
20260506111039 55 129 0.0 2.0 0.00 0.00 0.00 91 1012.9
20260506110539 55 322 0.0 3.0 0.00 0.00 0.00 92 1013.0
20260506110053 55 322 0.0 3.0 0.00 0.00 0.00 92 1012.9
20260506105539 55 8 0.0 4.0 0.00 0.00 0.00 93 1012.9
20260506105039 54 229 0.0 4.0 0.00 0.00 0.00 93 1013.0
20260506104610 54 18 0.0 3.0 0.00 0.00 0.00 93 1013.0
20260506104038 54 345 1.0 3.0 0.00 0.00 0.00 93 1013.0
20260506103539 53 11 0.0 2.0 0.00 0.00 0.00 93 1012.9
20260506103048 53 10 0.0 3.0 0.00 0.00 0.00 92 1013.1
20260506102540 53 10 0.0 3.0 0.00 0.00 0.00 92 1013.0
20260506102040 53 0 0.0 2.0 0.00 0.00 0.00 93 1012.7
20260506101554 53 164 0.0 2.0 0.00 0.00 0.00 93 1012.7
20260506101039 53 0 0.0 3.0 0.00 0.00 0.00 93 1012.9
20260506100539 53 0 0.0 3.0 0.00 0.00 0.00 93 1012.8
20260506100048 53 357 0.0 2.0 0.00 0.00 0.00 92 1012.8
20260506095543 53 204 0.0 2.0 0.00 0.00 0.00 92 1012.7
20260506095039 53 0 0.0 2.0 0.00 0.00 0.00 92 1012.7
20260506094556 52 204 0.0 2.0 0.00 0.00 0.00 92 1012.8
20260506094038 52 204 0.0 2.0 0.00 0.00 0.00 92 1012.8
20260506093542 53 0 0.0 3.0 0.00 0.00 0.00 92 1012.9
20260506093055 53 204 0.0 3.0 0.00 0.00 0.00 92 1012.8
20260506092542 53 204 0.0 3.0 0.00 0.00 0.00 92 1012.8
20260506092039 53 0 0.0 3.0 0.00 0.00 0.00 92 1012.9
20260506091547 53 0 0.0 2.0 0.00 0.00 0.00 92 1013.0
20260506091040 53 0 0.0 2.0 0.00 0.00 0.00 92 1013.1
20260506090537 53 0 0.0 2.0 0.00 0.00 0.00 92 1013.1
20260506090051 53 0 0.0 11.0 0.00 0.00 0.00 92 1013.1
20260506085536 54 0 0.0 11.0 0.00 0.00 0.00 92 1013.1
20260506085039 54 8 0.0 11.0 0.00 0.00 0.00 92 1013.2
20260506084552 54 0 0.0 2.0 0.00 0.00 0.00 92 1013.1
20260506084039 54 0 0.0 2.0 0.00 0.00 0.00 92 1013.1
20260506083539 54 0 0.0 2.0 0.00 0.00 0.00 92 1013.1
20260506083051 54 241 0.0 2.0 0.00 0.00 0.00 92 1013.2
20260506082542 54 0 0.0 3.0 0.00 0.00 0.00 92 1013.3
20260506082040 54 33 0.0 3.0 0.00 0.00 0.00 92 1013.2
20260506081550 54 210 0.0 2.0 0.00 0.00 0.00 93 1013.2
20260506081038 54 0 0.0 2.0 0.00 0.00 0.00 93 1013.2
20260506080537 54 0 0.0 2.0 0.00 0.00 0.00 93 1013.2
20260506073051 52 299 0.0 3.0 0.00 0.00 0.00 93 1013.2
20260506072537 52 160 0.0 1.0 0.00 0.00 0.00 93 1013.2
20260506072039 52 0 0.0 2.0 0.00 0.00 0.00 93 1013.2
20260506071604 51 0 0.0 2.0 0.00 0.00 0.00 92 1013.2
20260506071039 51 0 0.0 2.0 0.00 0.00 0.00 92 1013.3
20260506070538 51 0 0.0 1.0 0.00 0.00 0.00 92 1013.2
20260506062039 52 0 0.0 2.0 0.00 0.00 0.00 92 1013.2
20260506061546 52 0 0.0 2.0 0.00 0.00 0.00 92 1013.2
20260506061040 52 0 0.0 2.0 0.00 0.00 0.00 92 1013.3
20260506060538 52 0 0.0 3.0 0.00 0.00 0.00 92 1013.3
20260506051039 52 0 0.0 3.0 0.00 0.00 0.00 91 1013.8
20260506050538 52 0 0.0 3.0 0.00 0.00 0.00 91 1013.8
20260506045040 52 0 0.0 3.0 0.00 0.00 0.00 91 1013.8
20260506044559 52 0 0.0 3.0 0.00 0.00 0.00 91 1013.7
20260506044039 52 0 0.0 2.0 0.00 0.00 0.00 91 1013.8
20260506043543 52 0 0.0 3.0 0.00 0.00 0.00 91 1013.7
20260506043045 52 0 0.0 3.0 0.00 0.00 0.00 91 1013.8
20260506042540 52 0 0.0 3.0 0.00 0.00 0.00 91 1013.7
20260506042041 52 92 0.0 2.0 0.00 0.00 0.00 91 1013.6
20260506041603 52 0 0.0 3.0 0.00 0.00 0.00 91 1013.8
20260506041039 52 0 0.0 3.0 0.00 0.00 0.00 91 1013.8
20260506040535 52 0 0.0 3.0 0.00 0.00 0.00 91 1013.8
20260506040054 52 0 0.0 2.0 0.00 0.00 0.00 91 1013.8
20260506035542 52 172 0.0 2.0 0.00 0.00 0.00 91 1013.8
20260506035043 52 0 0.0 2.0 0.00 0.00 0.00 91 1013.7
20260506034549 52 224 0.0 2.0 0.00 0.00 0.00 91 1013.7
20260506034038 52 0 0.0 3.0 0.00 0.00 0.00 91 1013.8
20260506033542 52 0 0.0 3.0 0.00 0.00 0.00 91 1013.8
20260506033048 51 224 0.0 3.0 0.00 0.00 0.00 91 1013.8
20260506032539 51 0 0.0 3.0 0.00 0.00 0.00 91 1013.7
20260506032040 51 0 0.0 2.0 0.00 0.00 0.00 90 1013.6
20260506031555 51 0 0.0 2.0 0.00 0.00 0.00 90 1013.6
20260506031040 51 0 0.0 2.0 0.00 0.00 0.00 90 1013.6
20260506030540 51 0 0.0 2.0 0.00 0.00 0.00 90 1013.6
20260506030052 51 0 0.0 3.0 0.00 0.00 0.00 90 1013.6
20260506025541 51 93 0.0 3.0 0.00 0.00 0.00 90 1013.6
20260506025038 51 0 0.0 3.0 0.00 0.00 0.00 90 1013.5
20260506024549 51 0 0.0 2.0 0.00 0.00 0.00 90 1013.6
20260506024038 51 0 0.0 2.0 0.00 0.00 0.00 89 1013.6
20260506023540 51 0 0.0 2.0 0.00 0.00 0.00 89 1013.6
20260506023048 51 0 0.0 2.0 0.00 0.00 0.00 89 1013.4
20260506022539 51 0 0.0 2.0 0.00 0.00 0.00 89 1013.5
20260506022039 51 0 0.0 2.0 0.00 0.00 0.00 89 1013.6
20260506021548 51 0 0.0 2.0 0.00 0.00 0.00 89 1013.5
20260506021039 51 0 0.0 2.0 0.00 0.00 0.00 89 1013.5
20260506020538 51 0 0.0 1.0 0.00 0.00 0.00 88 1013.6
20260506020047 51 0 0.0 3.0 0.00 0.00 0.00 88 1013.6
20260506015540 51 334 0.0 3.0 0.00 0.00 0.00 88 1013.6
20260506015040 51 201 0.0 2.0 0.00 0.00 0.00 88 1013.4
20260506014554 51 0 0.0 2.0 0.00 0.00 0.00 88 1013.4
20260506014039 51 264 0.0 2.0 0.00 0.00 0.00 88 1013.4
20260506013539 51 0 0.0 1.0 0.00 0.00 0.00 88 1013.4
20260506013047 51 0 0.0 1.0 0.00 0.00 0.00 88 1013.5
20260506012539 51 0 0.0 2.0 0.00 0.00 0.00 88 1013.4
20260506012040 51 0 0.0 2.0 0.00 0.00 0.00 88 1013.4
20260506011553 51 0 0.0 2.0 0.00 0.00 0.00 88 1013.4
20260506011038 51 0 0.0 2.0 0.00 0.00 0.00 88 1013.4
20260506010541 51 0 0.0 2.0 0.00 0.00 0.00 87 1013.3
20260506010049 52 0 0.0 2.0 0.00 0.00 0.00 87 1013.1
20260506005542 52 0 0.0 2.0 0.00 0.00 0.00 87 1013.1
20260506005038 52 0 0.0 2.0 0.00 0.00 0.00 87 1013.0
20260506004555 52 0 0.0 2.0 0.00 0.00 0.00 87 1013.1
20260506004038 52 0 0.0 2.0 0.00 0.00 0.00 87 1013.0
20260506003539 52 0 0.0 4.0 0.00 0.00 0.00 87 1012.8
20260506003049 53 0 0.0 4.0 0.00 0.00 0.00 87 1012.7
20260506002542 53 239 0.0 2.0 0.00 0.00 0.00 87 1012.6
20260506002039 53 0 0.0 2.0 0.00 0.00 0.00 87 1012.3
20260506001607 53 0 0.0 2.0 0.00 0.00 0.00 87 1011.9
20260506001039 53 239 0.0 5.0 0.00 0.00 0.00 86 1011.8
20260506000539 53 0 0.0 5.0 0.00 0.00 0.00 87 1011.6
20260506000048 53 0 0.0 2.0 0.00 0.00 0.00 86 1011.6
20260505235539 53 0 0.0 3.0 0.00 0.00 0.00 86 1011.8
20260505235039 54 134 0.0 3.0 0.00 0.00 0.00 86 1011.7
20260505234552 54 141 0.0 2.0 0.00 0.00 0.00 86 1011.8
20260505234039 54 141 0.0 3.0 0.00 0.00 0.00 86 1011.8
20260505233539 54 141 0.0 3.0 0.00 0.00 0.00 86 1011.9
20260505233055 54 121 0.0 3.0 0.00 0.00 0.00 86 1011.9
20260505232538 55 5 1.0 3.0 0.00 0.00 0.00 86 1012.0
20260505232039 55 312 1.0 3.0 0.00 0.00 0.00 86 1012.0
20260505231554 55 75 1.0 2.0 0.00 0.00 0.00 86 1011.9
20260505231041 55 0 0.0 3.0 0.00 0.00 0.00 86 1011.9
20260505230539 55 45 1.0 3.0 0.00 0.00 0.00 86 1011.9
20260505230049 55 85 0.0 3.0 0.00 0.00 0.00 86 1011.8
20260505225539 55 0 1.0 3.0 0.00 0.00 0.00 86 1011.8
20260505225039 55 0 0.0 2.0 0.00 0.00 0.00 85 1011.7
20260505224550 55 347 0.0 3.0 0.00 0.00 0.00 85 1011.6
20260505224039 55 0 0.0 3.0 0.00 0.00 0.00 85 1011.5
20260505223538 56 110 0.0 3.0 0.00 0.00 0.00 84 1011.5
20260505223057 56 121 0.0 3.0 0.00 0.00 0.00 84 1011.6
20260505222538 56 351 0.0 3.0 0.00 0.00 0.00 84 1011.6
20260505222038 57 19 0.0 4.0 0.00 0.00 0.00 84 1011.3
20260505221559 57 0 0.0 4.0 0.00 0.00 0.00 83 1011.4
20260505221039 57 356 1.0 4.0 0.00 0.00 0.00 82 1011.4
20260505220542 58 253 0.0 3.0 0.00 0.00 0.00 82 1011.4
20260505220056 58 253 1.0 3.0 0.00 0.00 0.00 82 1011.4
20260505215539 58 0 0.0 3.0 0.00 0.00 0.00 82 1011.4
20260505215039 58 341 1.0 3.0 0.00 0.00 0.00 82 1011.5
20260505214604 58 340 0.0 3.0 0.00 0.00 0.00 82 1011.5
20260505214040 58 0 0.0 3.0 0.00 0.00 0.00 82 1011.4
20260505213535 58 85 0.0 2.0 0.00 0.00 0.00 82 1011.5
20260505213058 58 0 0.0 3.0 0.00 0.00 0.00 82 1011.5
20260505212538 58 0 0.0 3.0 0.00 0.00 0.00 83 1011.6
20260505212038 58 0 1.0 3.0 0.00 0.00 0.00 82 1011.5
20260505211557 58 0 0.0 3.0 0.00 0.00 0.00 82 1011.3